TimePST,TemperatureF,Dew PointF,Humidity,Sea Level PressureIn,VisibilityMPH,Wind Direction,Wind SpeedMPH,Gust SpeedMPH,PrecipitationIn,Events,Conditions,WindDirDegrees,DateUTC
12:10 AM,15.8,12.2,86,29.85,9.0,SSW,4.6,-,0.00,,Overcast,200,2014-02-02 08:10:00
12:53 AM,16.0,12.9,88,30.04,10.0,Variable,5.8,-,0.00,Snow,Light Snow,0,2014-02-02 08:53:00
1:53 AM,17.1,12.9,84,30.04,10.0,SW,5.8,-,0.00,Snow,Light Snow,230,2014-02-02 09:53:00
2:53 AM,16.0,12.9,88,30.04,9.0,WSW,5.8,-,0.00,Snow,Light Snow,250,2014-02-02 10:53:00
3:53 AM,16.0,12.9,88,30.05,9.0,Variable,5.8,-,0.00,Snow,Light Snow,0,2014-02-02 11:53:00
4:53 AM,16.0,12.0,84,30.05,9.0,Variable,4.6,-,0.00,Snow,Light Snow,0,2014-02-02 12:53:00
5:53 AM,15.1,12.0,88,30.04,7.0,SW,3.5,-,0.00,,Overcast,220,2014-02-02 13:53:00
6:36 AM,15.8,12.2,86,29.81,3.0,SW,3.5,-,0.00,Snow,Light Snow,220,2014-02-02 14:36:00
6:53 AM,15.1,12.9,91,30.03,7.0,South,3.5,-,0.00,,Overcast,190,2014-02-02 14:53:00
7:32 AM,15.8,12.2,86,29.81,1.8,Calm,Calm,-,0.00,,Overcast,0,2014-02-02 15:32:00
7:38 AM,15.8,12.2,86,29.81,3.0,Calm,Calm,-,0.00,,Overcast,0,2014-02-02 15:38:00
7:53 AM,16.0,12.9,88,30.01,9.0,WSW,4.6,-,0.00,,Overcast,240,2014-02-02 15:53:00
8:53 AM,17.1,14.0,88,30.01,10.0,Variable,3.5,-,N/A,,Overcast,0,2014-02-02 16:53:00
9:30 AM,17.6,14.0,86,29.81,6.0,Calm,Calm,-,N/A,,Overcast,0,2014-02-02 17:30:00
9:53 AM,18.0,15.1,88,30.00,7.0,Calm,Calm,-,N/A,,Overcast,0,2014-02-02 17:53:00
10:51 AM,19.4,15.8,86,29.79,4.0,Variable,4.6,-,N/A,,Overcast,0,2014-02-02 18:51:00
10:53 AM,19.9,16.0,85,29.98,3.0,South,4.6,-,N/A,,Overcast,170,2014-02-02 18:53:00
11:38 AM,21.2,17.6,86,29.77,10.0,Variable,3.5,-,N/A,,Overcast,0,2014-02-02 19:38:00
11:53 AM,21.0,17.1,85,29.95,6.0,Calm,Calm,-,N/A,,Overcast,0,2014-02-02 19:53:00
12:53 PM,21.0,15.1,78,29.92,10.0,WSW,5.8,-,N/A,,Overcast,240,2014-02-02 20:53:00
1:53 PM,19.0,14.0,81,29.91,10.0,SW,5.8,-,N/A,,Overcast,220,2014-02-02 21:53:00
2:53 PM,19.9,17.1,89,29.91,10.0,Calm,Calm,-,N/A,,Overcast,0,2014-02-02 22:53:00
3:07 PM,19.4,15.8,86,29.73,10.0,Calm,Calm,-,N/A,,Overcast,0,2014-02-02 23:07:00
3:53 PM,19.0,16.0,88,29.91,10.0,Calm,Calm,-,0.00,,Overcast,0,2014-02-02 23:53:00
4:01 PM,17.6,15.8,93,29.73,10.0,Calm,Calm,-,N/A,,Overcast,0,2014-02-03 00:01:00
4:43 PM,17.6,15.8,93,29.72,2.5,Calm,Calm,-,0.00,Snow,Light Snow,0,2014-02-03 00:43:00
4:53 PM,18.0,16.0,92,29.91,2.5,Calm,Calm,-,0.00,Snow,Light Snow,0,2014-02-03 00:53:00
5:09 PM,17.6,15.8,93,29.72,3.0,Calm,Calm,-,0.00,Snow,Light Snow,0,2014-02-03 01:09:00
5:28 PM,17.6,15.8,93,29.71,2.5,SSE,3.5,-,0.00,Snow,Light Snow,160,2014-02-03 01:28:00
5:53 PM,18.0,16.0,92,29.89,2.5,Calm,Calm,-,0.00,Snow,Light Snow,0,2014-02-03 01:53:00
6:00 PM,17.6,15.8,93,29.70,2.0,Calm,Calm,-,0.00,Snow,Light Snow,0,2014-02-03 02:00:00
6:08 PM,17.6,15.8,93,29.70,1.5,South,3.5,-,0.00,Snow,Light Snow,170,2014-02-03 02:08:00
6:13 PM,17.6,15.8,93,29.70,1.0,SSE,3.5,-,0.00,Snow,Light Snow,150,2014-02-03 02:13:00
6:20 PM,17.6,15.8,93,29.69,1.8,Variable,3.5,-,0.00,Snow,Light Snow,0,2014-02-03 02:20:00
6:23 PM,17.6,15.8,93,29.69,3.0,SSE,3.5,-,0.00,Snow,Light Snow,150,2014-02-03 02:23:00
6:37 PM,17.6,15.8,93,29.69,2.5,SSE,5.8,-,0.00,Snow,Light Snow,160,2014-02-03 02:37:00
6:49 PM,17.6,15.8,93,29.68,2.5,SSE,4.6,-,0.00,Snow,Light Snow,160,2014-02-03 02:49:00
6:53 PM,17.1,15.1,92,29.88,2.5,SSE,5.8,-,0.00,Snow,Light Snow,160,2014-02-03 02:53:00
7:00 PM,17.6,15.8,93,29.68,2.0,SSE,5.8,-,0.00,Snow,Light Snow,160,2014-02-03 03:00:00
7:11 PM,17.6,15.8,93,29.68,1.5,SSE,4.6,-,0.00,Snow,Light Snow,150,2014-02-03 03:11:00
7:26 PM,17.6,15.8,93,29.67,2.5,SSE,6.9,-,0.00,Snow,Light Snow,150,2014-02-03 03:26:00
7:33 PM,17.6,15.8,93,29.67,4.0,SSE,6.9,-,0.00,Snow,Light Snow,150,2014-02-03 03:33:00
7:53 PM,17.1,15.1,92,29.86,3.0,SSE,5.8,-,0.00,Snow,Light Snow,150,2014-02-03 03:53:00
8:00 PM,17.6,15.8,93,29.66,3.0,SSE,5.8,-,0.00,Snow,Light Snow,150,2014-02-03 04:00:00
8:04 PM,17.6,15.8,93,29.66,2.5,SE,6.9,-,0.00,Snow,Light Snow,140,2014-02-03 04:04:00
8:21 PM,17.6,15.8,93,29.66,2.0,SSE,6.9,-,0.00,Snow,Light Snow,150,2014-02-03 04:21:00
8:38 PM,17.6,15.8,93,29.66,1.5,Variable,4.6,-,0.00,Snow,Light Snow,0,2014-02-03 04:38:00
8:49 PM,17.6,15.8,93,29.66,1.5,SSE,5.8,-,0.00,Snow,Light Snow,150,2014-02-03 04:49:00
8:53 PM,17.1,15.1,92,29.85,1.5,Variable,5.8,-,0.00,Snow,Light Snow,0,2014-02-03 04:53:00
9:02 PM,15.8,15.8,100,29.66,1.8,SSE,4.6,-,0.01,Snow,Light Snow,150,2014-02-03 05:02:00
9:25 PM,15.8,15.8,100,29.65,2.0,SSE,6.9,-,0.01,Snow,Light Snow,150,2014-02-03 05:25:00
9:41 PM,15.8,15.8,100,29.65,1.5,SSE,5.8,-,0.01,Snow,Light Snow,150,2014-02-03 05:41:00
9:53 PM,16.0,14.0,92,29.84,2.5,SSE,5.8,-,0.01,Snow,Light Snow,150,2014-02-03 05:53:00
10:08 PM,15.8,15.8,100,29.65,1.2,SSE,6.9,-,0.00,Snow,Light Snow,160,2014-02-03 06:08:00
10:35 PM,15.8,14.0,93,29.64,2.0,SSE,4.6,-,0.00,Snow,Light Snow,150,2014-02-03 06:35:00
10:46 PM,15.8,14.0,93,29.64,4.0,SSE,4.6,-,0.00,Snow,Light Snow,150,2014-02-03 06:46:00
10:53 PM,16.0,14.0,92,29.82,4.0,SSE,4.6,-,0.00,Snow,Light Snow,160,2014-02-03 06:53:00
11:13 PM,15.8,14.0,93,29.64,2.0,Variable,3.5,-,0.00,Snow,Light Snow,0,2014-02-03 07:13:00
11:29 PM,15.8,14.0,93,29.64,2.0,Variable,4.6,-,0.00,Snow,Light Snow,0,2014-02-03 07:29:00
11:46 PM,15.8,14.0,93,29.64,1.8,SSE,4.6,-,0.01,Snow,Light Snow,160,2014-02-03 07:46:00
11:53 PM,16.0,14.0,92,29.81,1.8,Variable,3.5,-,0.01,Snow,Light Snow,0,2014-02-03 07:53:00